Regional Weather Roundup
Issued by NWS

Home | Current Version | Previous Version | Text Only | Print | Product List | Glossary On
Versions: 1 2 3 4 5 6 7 8 9 10 11 12 13 14 15 16 17 18 19 20 21 22 23 24 25 26 27 28 29 30 31 32 33 34 35 36 37 38 39 40 41 42 43 44 45 46 47 48 49 50
000
ASUS43 KDTX 210210
RWRMI
MICHIGAN HOURLY REGIONAL WEATHER ROUNDUP
NATIONAL WEATHER SERVICE DETROIT/PONTIAC MI
900 PM EST THU NOV 20 2014

NOTE: "FAIR" INDICATES FEW OR NO CLOUDS BELOW 12,000 FEET WITH NO
SIGNIFICANT WEATHER AND/OR OBSTRUCTION TO VISIBILITY.

MIZ047>049-052>055-059>063-066>070-074>076-081>083-210300-
SOUTHEAST LOWER MICHIGAN

CITY           SKY/WX    TMP DP  RH WIND       PRES   REMARKS
ADRIAN         MOCLDY    18  13  80 W5        30.12R WCI  11
ALMA           PTCLDY    12   8  81 W6        30.10R WCI   3
ANN ARBOR      CLOUDY    19  11  70 NW5       30.11R WCI  12
BAD AXE        CLEAR     18  11  75 W12       30.03R WCI   5
CARO           CLEAR     14   7  73 SW5       30.06R WCI   6
DETROIT CITY   CLEAR     21  10  62 W6        30.11R WCI  13
DETROIT        MOCLDY    20  11  68 W7        30.12R WCI  11
FLINT          PTCLDY    13   7  77 W6        30.09R WCI   4
GROSSE ILE     CLOUDY    21  12  68 NW8       30.11R WCI  12
HILLSDALE      MOCLDY    18  13  80 W6        30.09R WCI  10
HOWELL         MOCLDY    14  10  85 W6        30.08R WCI   5

CITY           SKY/WX    TMP DP  RH WIND       PRES   REMARKS
JACKSON        LGT SNOW  17  14  88 SW3       30.10R FOG
LAMBERTVILLE   CLEAR     21  16  79 W5        30.13R WCI  15
LANSING        CLOUDY    17  13  84 W8        30.11R BLWGSNOWWCI   7
LAPEER         MOCLDY    15   7  71 W5        30.07R WCI   7
MASON          LGT SNOW  17  14  90 CALM      30.09R
MONROE         PTCLDY    18  12  79 W5        30.11R WCI  11
MT. CLEMENS    CLEAR     18   9  70 W9        30.07R WCI   6
PONTIAC        PTCLDY    15   8  73 W8        30.06R WCI   4
PORT HOPE        N/A     22   9  57 W10G23    29.99R WCI  11
PORT HURON     FAIR      16  10  79 W3        30.07R
TRI CITIES     PTCLDY    16   9  74 W9        30.09R WCI   4
TROY           CLEAR     20  11  68 W8        30.10R WCI  11
SAGINAW HB     PTCLDY    19  10  68 W9        30.08R WCI   9
$$
MIZ043>046-050>051-056>058-064>065-071>073-077>080-210300-
SOUTHWEST LOWER MICHIGAN

CITY           SKY/WX    TMP DP  RH WIND       PRES   REMARKS
BATTLE CREEK   FLURRIES  22  16  78 W7        30.10R WCI  13
BENTON HARBOR  CLOUDY    24   7  48 W14G24    30.15R WCI  12
BIG RAPIDS     PTCLDY    14  10  86 W7        30.07R WCI   4
COLDWATER      PTCLDY    18  13  82 W5        30.11R WCI  11
FREMONT        CLOUDY    17  10  75 N6        30.11R WCI   8
HOLLAND        CLOUDY    25  10  53 NW15G24   30.12R WCI  13
GRAND RAPIDS   LGT SNOW  19  15  84 NW13      30.11R VSB 1   WCI   6
IONIA          LGT SNOW  19  16  89 W7        30.10R WCI   9
KALAMAZOO      LGT SNOW  22  13  68 W9        30.12R WCI  12
LUDINGTON      CLOUDY    19   8  60 NW12G21   30.12R WCI   7
MARSHALL       MOCLDY    18  14  86 W5        30.10R WCI  11
MOUNT PLEASANT CLEAR     13  10  86 W5        30.07R WCI   5
MUSKEGON       LGT SNOW  21  11  65 NW21G29   30.13R BLWGSNOWWCI   5
SOUTH HAVEN    CLOUDY    26   8  45 NW14G26   30.13R WCI  15
$$
MIZ016>042-210300-
NORTHERN LOWER MICHIGAN

CITY           SKY/WX    TMP DP  RH WIND       PRES   REMARKS
BEAVER ISLAND  MOCLDY    18   5  57 NW10G17   30.06R WCI   7
BELLAIRE       CLOUDY    20  15  80 CALM      30.05R
CADILLAC       LGT SNOW   9   7  91 SW5       30.01R WCI   1
CHARLEVOIX     CLOUDY    21   8  58 NW15G28   30.06R WCI   7
FRANKFORT      CLOUDY    20  11  69 NW16G23   30.08R WCI   6
GAYLORD        LGT SNOW  16  12  84 NW6       29.98R VSB 1   WCI   7
GRAYLING       LGT SNOW  14  12  90 W5        30.01R WCI   7
HARBOR SPRINGS MOCLDY    18   6  60 NW9       30.03R WCI   7
HOUGHTON LAKE  CLEAR     12   9  87 W9        30.02R WCI   0
MANISTEE       CLOUDY    19  10  68 W17G26    30.10R WCI   4
OSCODA         CLEAR     16  10  76 W12       30.01R WCI   3
PELLSTON       LGT SNOW  18  10  71 NW21G26   30.03R WCI   1
ROGERS CITY    CLOUDY    20  13  73 W14G21    30.00R WCI   7
TRAVERSE CITY  LGT SNOW  18  13  80 W8        30.07R VSB 1   WCI   8
$$
MIZ007>008-015-210300-
EASTERN UPPER MICHIGAN

CITY           SKY/WX    TMP DP  RH WIND       PRES   REMARKS
KINROSS        PTCLDY    14  12  92 W13       29.98R WCI   0
MACKINAC ISLAN PTCLDY    18  12  78 W17G29    30.01R WCI   2
NEWBERRY       MOCLDY    10   8  90 W10       30.01R WCI  -3
S. S. MARIE    LGT SNOW  17  12  80 N9        29.95F WCI   6
MUNISING         N/A     13   2  61 VRB6      30.06R WCI   4
$$
MIZ004>006-011>014-085-210300-
CENTRAL UPPER MICHIGAN

CITY           SKY/WX    TMP DP  RH WIND       PRES   REMARKS
MANISTIQUE     CLEAR     10   0  65 W9        30.07R WCI  -4
ESCANABA       PTCLDY     9   0  66 W6        30.10R WCI  -1
MENOMINEE      CLEAR     10   0  61 NW5       30.14R WCI   2
SAWYER-GWINN   CLOUDY     5   1  85 CALM      30.04R
$$
MIZ001>003-009>011-084-210300-
WESTERN UPPER MICHIGAN

CITY           SKY/WX    TMP DP  RH WIND       PRES   REMARKS
IRON MOUNTAIN  CLOUDY     9   0  67 W8        30.05S WCI  -3
HOUGHTON       LGT SNOW  13   6  74 NW16      30.04R WCI  -3
COPPER HARBOR    N/A     17  11  77 N21       30.05R WCI   0
IRONWOOD       CLOUDY    10   7  85 W13       30.07R WCI  -5
$$

ABBREVIATIONS USED IN REMARKS
   TC - TEMPERATURE IN CELSIUS
  WCI - WIND CHILL INDEX
   HX - HEAT INDEX
  VSB - VISIBILITY




USA.gov is the U.S. government's official web portal to all federal, state and local government web resources and services.